"2010-02-09 00:00:00",1664919,4.527,117.9,3.656,0.963,-5.758,95.81246,-11.36,-9.91,88,0,108.9,13.88,-10.65,79.9
"2010-02-09 00:00:30",1664920,4.341,118.3,4.718,1.052,-6.495,95.813,-11.36,-9.97,87.9,0,109,13.88,-10.64,80.3
"2010-02-09 00:01:00",1664921,4.388,123.5,5.577,1.034,-6.116,95.81436,-11.35,-10.02,87.9,0,108.9,13.88,-10.64,85.5
"2010-02-09 00:01:30",1664922,4.771,125.2,3.452,0.713,-5.648,95.81654,-11.35,-9.93,88,0,108.9,13.88,-10.64,87.2
"2010-02-09 00:02:00",1664923,4.826,124.7,3.403,0.588,-5.108,95.82034,-11.34,-9.95,88,0,108.9,13.88,-10.63,86.7
"2010-02-09 00:02:30",1664924,4.74,123.4,2.984,0.678,-5.099,95.81687,-11.35,-9.94,88,0,108.9,13.88,-10.63,85.4
"2010-02-09 00:03:00",1664925,4.624,123.1,2.422,0.687,-5.394,95.81051,-11.36,-9.98,88,0,108.9,13.88,-10.65,85.1
"2010-02-09 00:03:30",1664926,3.925,119.7,5.97,1.093,-7.038,95.80681,-11.37,-10,87.9,0,108.9,13.88,-10.66,81.7
"2010-02-09 00:04:00",1664927,4.453,122.6,5.467,0.88,-5.684,95.80845,-11.37,-9.94,88,0,108.9,13.88,-10.66,84.6
"2010-02-09 00:04:30",1664928,4.691,125.5,3.632,0.543,-5.251,95.81023,-11.36,-9.96,88,0,108.9,13.88,-10.65,87.5
"2010-02-09 00:05:00",1664929,3.978,126.5,5.492,1.111,-6.855,95.80534,-11.38,-10.07,87.9,0,108.9,13.88,-10.66,88.5
"2010-02-09 00:05:30",1664930,4.503,130.9,2.969,0.894,-5.498,95.80837,-11.37,-9.97,88,0,108.9,13.88,-10.66,92.9
"2010-02-09 00:06:00",1664931,4.723,132.1,3.435,0.612,-5.226,95.80804,-11.37,-9.98,88,0,108.9,13.88,-10.66,94.1
"2010-02-09 00:06:30",1664932,3.904,128.3,5.774,1.116,-6.683,95.8018,-11.38,-10.04,88,0,108.9,13.88,-10.67,90.3
"2010-02-09 00:07:00",1664933,4.516,130.1,4.277,0.849,-5.423,95.80069,-11.39,-10.02,88,0,108.9,13.88,-10.68,92.1
"2010-02-09 00:07:30",1664934,4.682,130.1,3.061,0.592,-5.123,95.80151,-11.39,-9.99,88.1,0,108.9,13.88,-10.67,92.1
"2010-02-09 00:08:00",1664935,4.613,129.5,3.138,0.628,-5,95.80151,-11.39,-10.01,88.1,0,108.9,13.88,-10.67,91.5
"2010-02-09 00:08:30",1664936,4.639,130.1,3.248,0.688,-5.063,95.80148,-11.39,-10,88.1,0,108.9,13.88,-10.67,92.1
"2010-02-09 00:09:00",1664937,4.658,130.4,3.572,0.7,-5.277,95.80119,-11.39,-10.02,88.1,0,108.9,13.88,-10.67,92.4
"2010-02-09 00:09:30",1664938,4.653,129.4,3.151,0.683,-5.086,95.79382,-11.4,-10.02,88.1,0,108.9,13.88,-10.69,91.4
"2010-02-09 00:10:00",1664939,4.789,131.7,3.677,0.585,-5.417,95.78641,-11.42,-10.02,88.1,0,108.9,13.88,-10.71,93.7
"2010-02-09 00:10:30",1664940,4.843,133.2,3.281,0.698,-5.491,95.78163,-11.44,-10.02,88.1,0,108.9,13.88,-10.72,95.2
"2010-02-09 00:11:00",1664941,4.883,130.9,3.152,0.741,-5.359,95.77539,-11.45,-10.04,88.1,0,108.9,13.88,-10.74,92.9
"2010-02-09 00:11:30",1664942,4.861,130.4,2.058,0.761,-5.298,95.77285,-11.46,-10.04,88.1,0,108.9,13.88,-10.75,92.4
"2010-02-09 00:12:00",1664943,4.794,129.3,2.599,0.683,-5.576,95.77283,-11.46,-10.06,88.1,0,108.9,13.88,-10.75,91.3
"2010-02-09 00:12:30",1664944,4.614,129.5,2.685,0.761,-5.715,95.77054,-11.46,-10.05,88.1,0,108.9,13.88,-10.75,91.5
"2010-02-09 00:13:00",1664945,4.611,129.9,3.082,0.677,-5.672,95.76773,-11.47,-10.04,88.1,0,108.9,13.88,-10.76,91.9
"2010-02-09 00:13:30",1664946,4.091,129.6,4.606,1.037,-6.361,95.76987,-11.47,-10.08,88,0,108.9,13.88,-10.75,91.6
"2010-02-09 00:14:00",1664947,4.098,129.4,4.774,1.045,-6.561,95.77097,-11.46,-10.13,88,0,108.9,13.88,-10.75,91.4
"2010-02-09 00:14:30",1664948,3.846,128.7,5.725,1.054,-6.924,95.76987,-11.47,-10.15,88,0,108.9,13.89,-10.75,90.7
"2010-02-09 00:15:00",1664949,4.199,129.9,4.971,1.007,-6.068,95.77151,-11.46,-10.13,88,0,108.9,13.89,-10.75,91.9
"2010-02-09 00:15:30",1664950,4.387,129.5,5.016,0.91,-5.614,95.77287,-11.46,-10.09,88.1,0,108.9,13.89,-10.75,91.5
"2010-02-09 00:16:00",1664951,4.491,130.1,4.199,0.788,-5.178,95.77315,-11.46,-10.11,88.1,0,108.9,13.89,-10.75,92.1
"2010-02-09 00:16:30",1664952,4.518,129.7,4.6,0.792,-5.438,95.77287,-11.46,-10.1,88.1,0,108.9,13.89,-10.75,91.7
"2010-02-09 00:17:00",1664953,4.693,134.9,2.823,0.592,-4.931,95.77368,-11.46,-10.1,88.1,0,108.9,13.89,-10.74,96.9
"2010-02-09 00:17:30",1664954,4.649,134.4,3.094,0.684,-5.137,95.77368,-11.46,-10.08,88.1,0,108.9,13.89,-10.74,96.4
"2010-02-09 00:18:00",1664955,4.792,135.2,3.641,0.52,-5.153,95.77368,-11.46,-10.1,88.1,0,108.9,13.89,-10.74,97.2
"2010-02-09 00:18:30",1664956,4.709,135.7,2.97,0.675,-5.035,95.77368,-11.46,-10.1,88.1,0,108.9,13.89,-10.74,97.7
"2010-02-09 00:19:00",1664957,4.708,136.1,3.863,0.59,-5.103,95.77368,-11.46,-10.08,88.1,0,108.9,13.89,-10.74,98.1
"2010-02-09 00:19:30",1664958,4.636,134.3,2.984,0.6,-5.316,95.77341,-11.46,-10.1,88.1,0,108.9,13.89,-10.75,96.3
"2010-02-09 00:20:00",1664959,4.58,135,3.438,0.701,-5.41,95.77141,-11.46,-10.08,88.1,0,108.9,13.89,-10.75,97.0
"2010-02-09 00:20:30",1664960,4.665,137.5,3.216,0.595,-5.389,95.768,-11.47,-10.1,88.1,0,108.9,13.89,-10.76,99.5
"2010-02-09 00:21:00",1664961,4.547,135.8,3.966,0.604,-5.268,95.76375,-11.48,-10.09,88.1,0,108.9,13.89,-10.77,97.8
"2010-02-09 00:21:30",1664962,4.51,131.3,4.343,0.607,-5.444,95.76318,-11.48,-10.11,88.1,0,108.9,13.89,-10.77,93.3
"2010-02-09 00:22:00",1664963,4.532,129.9,2.898,0.693,-5.464,95.75721,-11.5,-10.1,88.1,0,108.9,13.89,-10.79,91.9
"2010-02-09 00:22:30",1664964,4.264,126.4,5.331,0.889,-6.37,95.75437,-11.51,-10.2,88,0,108.9,13.89,-10.79,88.4
"2010-02-09 00:23:00",1664965,3.547,123.5,5.175,1.069,-7.888,95.75182,-11.51,-10.19,88,0,108.9,13.89,-10.80,85.5
"2010-02-09 00:23:30",1664966,3.826,122.5,6.037,1.072,-7.418,95.74641,-11.53,-10.25,88,0,108.9,13.89,-10.81,84.5
"2010-02-09 00:24:00",1664967,4.805,131,4.974,0.396,-5.187,95.74528,-11.53,-10.12,88.1,0,108.9,13.89,-10.82,93.0
"2010-02-09 00:24:30",1664968,4.549,137.3,2.543,0.769,-4.983,95.74187,-11.54,-10.12,88.1,0,108.9,13.89,-10.83,99.3
"2010-02-09 00:25:00",1664969,4.609,136.4,4.199,0.684,-4.874,95.7396,-11.54,-10.11,88.1,0,108.9,13.89,-10.83,98.4
"2010-02-09 00:25:30",1664970,4.713,140.4,3.07,0.591,-4.996,95.7396,-11.54,-10.12,88.2,0,108.9,13.89,-10.83,102.4
"2010-02-09 00:26:00",1664971,4.705,141,3.402,0.682,-5.049,95.7396,-11.54,-10.13,88.1,0,108.9,13.89,-10.83,103.0
"2010-02-09 00:26:30",1664972,4.749,141,3.554,0.481,-5.136,95.7396,-11.54,-10.13,88.1,0,108.9,13.89,-10.83,103.0
"2010-02-09 00:27:00",1664973,4.68,140.8,2.375,0.694,-5.084,95.7396,-11.54,-10.14,88.2,0,108.9,13.89,-10.83,102.8
"2010-02-09 00:27:30",1664974,4.768,138.3,2.923,0.601,-4.96,95.7396,-11.54,-10.13,88.2,0,108.9,13.89,-10.83,100.3
"2010-02-09 00:28:00",1664975,4.802,134.7,2.776,0.583,-5.485,95.7396,-11.54,-10.15,88.2,0,108.9,13.89,-10.83,96.7
"2010-02-09 00:28:30",1664976,4.751,133.3,3.262,0.612,-5.495,95.7396,-11.54,-10.14,88.2,0,108.9,13.89,-10.83,95.3
"2010-02-09 00:29:00",1664977,4.789,131.5,3.272,0.616,-5.547,95.74014,-11.54,-10.16,88.2,0,108.9,13.89,-10.83,93.5
"2010-02-09 00:29:30",1664978,4.781,128.7,4.134,0.511,-5.319,95.7396,-11.54,-10.15,88.2,0,108.9,13.89,-10.83,90.7
"2010-02-09 00:30:00",1664979,4.685,124,2.556,0.675,-5.366,95.7396,-11.54,-10.15,88.2,0,108.9,13.89,-10.83,86.0
"2010-02-09 00:30:30",1664980,4.695,121.4,3.311,0.542,-5.471,95.73987,-11.54,-10.15,88.2,0,108.9,13.9,-10.83,83.4
"2010-02-09 00:31:00",1664981,4.63,122.5,3.178,0.682,-5.521,95.7396,-11.54,-10.15,88.2,0,108.9,13.9,-10.83,84.5
"2010-02-09 00:31:30",1664982,4.043,119.8,5.185,1.044,-6.514,95.74014,-11.54,-10.21,88.2,0,108.9,13.9,-10.83,81.8
"2010-02-09 00:32:00",1664983,4.114,120.2,4.724,0.982,-6.692,95.74041,-11.54,-10.26,88.1,0,108.9,13.9,-10.83,82.2
"2010-02-09 00:32:30",1664984,3.184,115.3,5.519,0.975,-8.16,95.74123,-11.54,-10.32,88.1,0,108.9,13.9,-10.83,77.3
"2010-02-09 00:33:00",1664985,4.217,120.3,5.095,0.958,-5.579,95.74041,-11.54,-10.18,88.3,0,108.9,13.9,-10.83,82.3
"2010-02-09 00:33:30",1664986,4.273,119.6,4.117,0.89,-5.049,95.74096,-11.54,-10.15,88.3,0,108.9,13.9,-10.83,81.6
"2010-02-09 00:34:00",1664987,4.377,121.3,2.563,0.775,-4.942,95.74341,-11.53,-10.14,88.3,0,108.9,13.9,-10.82,83.3
"2010-02-09 00:34:30",1664988,4.422,119.7,3.656,0.764,-5.02,95.74259,-11.54,-10.16,88.3,0,108.9,13.9,-10.82,81.7
"2010-02-09 00:35:00",1664989,4.204,116,4.352,0.907,-5.321,95.74178,-11.54,-10.18,88.3,0,108.9,13.9,-10.83,78.0
"2010-02-09 00:35:30",1664990,4.074,111.5,5.487,1.027,-5.876,95.74422,-11.53,-10.21,88.3,0,108.9,13.9,-10.82,73.5
"2010-02-09 00:36:00",1664991,4.425,113.1,4.727,0.776,-5.181,95.74368,-11.53,-10.18,88.3,0,108.9,13.9,-10.82,75.1
"2010-02-09 00:36:30",1664992,4.24,113,4.548,0.856,-5.345,95.7445,-11.53,-10.17,88.4,0,108.9,13.9,-10.82,75.0
"2010-02-09 00:37:00",1664993,3.822,110.2,5.588,1.098,-6.466,95.7445,-11.53,-10.22,88.3,0,108.9,13.9,-10.82,72.2
"2010-02-09 00:37:30",1664994,4.222,112.4,4.954,0.956,-5.656,95.74477,-11.53,-10.19,88.3,0,108.9,13.9,-10.82,74.4
"2010-02-09 00:38:00",1664995,4.647,115.1,2.92,0.479,-4.846,95.74395,-11.53,-10.15,88.4,0,108.8,13.9,-10.82,77.1
"2010-02-09 00:38:30",1664996,4.362,115.1,4.409,0.851,-5.2,95.74341,-11.53,-10.16,88.4,0,108.9,13.9,-10.82,77.1
"2010-02-09 00:39:00",1664997,4.284,113.9,4.898,0.944,-5.779,95.74532,-11.53,-10.2,88.4,0,108.9,13.9,-10.82,75.9
"2010-02-09 00:39:30",1664998,4.111,114.8,5.321,1.058,-5.922,95.74341,-11.53,-10.13,88.4,0,108.9,13.91,-10.82,76.8
"2010-02-09 00:40:00",1664999,4.615,117.8,3.576,0.522,-4.798,95.74368,-11.53,-10.12,88.4,0,108.9,13.91,-10.82,79.8
"2010-02-09 00:40:30",1665000,4.503,118.7,3.335,0.683,-4.907,95.74368,-11.53,-10.12,88.4,0,108.9,13.91,-10.82,80.7
"2010-02-09 00:41:00",1665001,4.025,116.2,5.241,1.004,-5.869,95.74558,-11.53,-10.19,88.4,0,108.9,13.9,-10.82,78.2
"2010-02-09 00:41:30",1665002,4.017,117.6,4.91,0.951,-5.788,95.74586,-11.53,-10.16,88.4,0,108.9,13.9,-10.82,79.6
"2010-02-09 00:42:00",1665003,3.843,117.4,5.625,1.05,-6.296,95.74558,-11.53,-10.25,88.3,0,108.9,13.9,-10.82,79.4
"2010-02-09 00:42:30",1665004,3.507,116.7,5.58,1.114,-6.762,95.74503,-11.53,-10.17,88.4,0,108.9,13.9,-10.82,78.7
"2010-02-09 00:43:00",1665005,4.128,120.6,3.618,0.861,-5.291,95.74503,-11.53,-10.09,88.4,0,109,13.9,-10.82,82.6
"2010-02-09 00:43:30",1665006,4.345,121,3.284,0.612,-4.954,95.74644,-11.53,-10.08,88.4,0,108.9,13.9,-10.81,83.0
"2010-02-09 00:44:00",1665007,4.319,121.7,4.049,0.522,-5.021,95.75037,-11.52,-10.09,88.4,0,108.9,13.9,-10.80,83.7
"2010-02-09 00:44:30",1665008,4.338,122.9,3.197,0.561,-5.287,95.75234,-11.51,-10.07,88.4,0,108.9,13.9,-10.80,84.9
"2010-02-09 00:45:00",1665009,3.798,122,5.169,0.989,-6.107,95.75155,-11.51,-10.14,88.4,0,108.9,13.9,-10.80,84.0
"2010-02-09 00:45:30",1665010,3.216,119.8,5.739,1.115,-7.242,95.754,-11.51,-10.17,88.3,0,108.9,13.9,-10.79,81.8
"2010-02-09 00:46:00",1665011,3.487,120.8,5.757,1.11,-6.865,95.75488,-11.5,-10.26,88.2,0,108.9,13.9,-10.79,82.8
"2010-02-09 00:46:30",1665012,3.914,122,4.827,1.03,-5.849,95.76075,-11.49,-10.13,88.3,0,108.9,13.91,-10.78,84.0
"2010-02-09 00:47:00",1665013,4.428,122.3,3.181,0.711,-4.737,95.76082,-11.49,-10.08,88.4,0,108.9,13.91,-10.78,84.3
"2010-02-09 00:47:30",1665014,4.551,120.2,3.168,0.612,-4.721,95.76557,-11.48,-10.06,88.4,0,108.9,13.91,-10.77,82.2
"2010-02-09 00:48:00",1665015,4.473,119.8,2.501,0.696,-4.628,95.76871,-11.47,-10.07,88.4,0,108.9,13.91,-10.76,81.8
"2010-02-09 00:48:30",1665016,4.51,119.1,3.818,0.729,-4.68,95.77119,-11.46,-10.07,88.4,0,108.9,13.91,-10.75,81.1
"2010-02-09 00:49:00",1665017,4.697,119.8,3.526,0.498,-4.791,95.7768,-11.45,-10.07,88.4,0,108.9,13.91,-10.74,81.8
"2010-02-09 00:49:30",1665018,3.884,119.7,5.86,1.092,-6.39,95.77958,-11.44,-10.17,88.3,0,108.9,13.91,-10.73,81.7
"2010-02-09 00:50:00",1665019,3.914,123.9,5.309,1.071,-6.288,95.7821,-11.43,-10.1,88.3,0,108.9,13.91,-10.72,85.9
"2010-02-09 00:50:30",1665020,4.229,125.9,5.427,0.948,-6.293,95.7841,-11.43,-10.23,88.2,0,108.9,13.91,-10.72,87.9
"2010-02-09 00:51:00",1665021,4.349,128.7,4.231,0.852,-5.367,95.78993,-11.41,-10.06,88.4,0,108.9,13.91,-10.70,90.7
"2010-02-09 00:51:30",1665022,4.41,130.6,4.504,0.708,-5.028,95.78991,-11.41,-10.08,88.3,0,108.9,13.91,-10.70,92.6
"2010-02-09 00:52:00",1665023,4.069,128,5.132,0.914,-4.97,95.7888,-11.42,-10.07,88.3,0,108.9,13.91,-10.71,90.0
"2010-02-09 00:52:30",1665024,4.361,124.2,4.092,0.35,-4.417,95.79324,-11.41,-10.05,88.3,0,108.9,13.91,-10.69,86.2
"2010-02-09 00:53:00",1665025,4.384,116,3.58,0.613,-4.515,95.79214,-11.41,-10.07,88.3,0,108.9,13.91,-10.70,78.0
"2010-02-09 00:53:30",1665026,4.515,111.2,3.285,0.581,-4.322,95.79243,-11.41,-10.05,88.3,0,108.9,13.91,-10.70,73.2
"2010-02-09 00:54:00",1665027,4.318,113.9,4.587,0.71,-4.863,95.79459,-11.4,-10.05,88.3,0,108.9,13.91,-10.69,75.9
"2010-02-09 00:54:30",1665028,4.026,120.7,3.724,0.621,-5.5,95.79382,-11.4,-10.06,88.3,0,108.9,13.91,-10.69,82.7
"2010-02-09 00:55:00",1665029,3.299,116.7,7.49,1.062,-6.487,95.79681,-11.4,-10.03,88.3,0,108.9,13.91,-10.69,78.7
"2010-02-09 00:55:30",1665030,3.163,107,6.876,0.981,-7.958,95.79709,-11.4,-10.28,88,0,108.9,13.91,-10.68,69.0
"2010-02-09 00:56:00",1665031,3.152,101.1,4.755,1.093,-7.731,95.79763,-11.4,-10.31,88,0,108.9,13.91,-10.68,63.1
"2010-02-09 00:56:30",1665032,4.484,106.4,4.211,0.827,-4.594,95.79845,-11.39,-10.07,88.2,0,108.9,13.91,-10.68,68.4
"2010-02-09 00:57:00",1665033,4.841,105.3,3.429,0.598,-3.45,95.79763,-11.4,-10.02,88.2,0,108.9,13.92,-10.68,67.3
"2010-02-09 00:57:30",1665034,4.893,105.2,3.402,0.716,-3.832,95.79872,-11.39,-10.03,88.2,0,108.9,13.91,-10.68,67.2
"2010-02-09 00:58:00",1665035,5.116,103.8,3.135,0.51,-3.999,95.79845,-11.39,-10.02,88.2,0,108.9,13.91,-10.68,65.8
"2010-02-09 00:58:30",1665036,5.086,105.2,4.454,0.522,-4.225,95.79872,-11.39,-10.01,88.2,0,108.9,13.91,-10.68,67.2
"2010-02-09 00:59:00",1665037,4.945,105.6,3.945,0.526,-4.265,95.79872,-11.39,-10.01,88.2,0,108.9,13.91,-10.68,67.6
"2010-02-09 00:59:30",1665038,4.963,102.1,3.745,0.507,-4.358,95.80063,-11.39,-10.03,88.2,0,108.9,13.9,-10.68,64.1
"2010-02-09 01:00:00",1665039,4.441,97.8,4.475,1.062,-5.348,95.80063,-11.39,-10.01,88.1,0,108.9,13.91,-10.68,59.8
"2010-02-09 01:00:30",1665040,4.831,97.4,4.395,0.682,-5.663,95.80063,-11.39,-10.06,88.1,0,108.9,13.9,-10.68,59.4
"2010-02-09 01:01:00",1665041,3.562,90.9,5.159,1.028,-8.17,95.8028,-11.38,-10.2,87.9,0,108.9,13.91,-10.67,52.9
"2010-02-09 01:01:30",1665042,4.124,95.7,6.016,1.118,-6.846,95.80008,-11.39,-10.06,88.1,0,108.9,13.91,-10.68,57.7
"2010-02-09 01:02:00",1665043,4.678,100.6,3.395,0.866,-5.024,95.8026,-11.38,-9.96,88.1,0,108.9,13.91,-10.67,62.6
"2010-02-09 01:02:30",1665044,4.82,100.3,2.921,0.605,-4.543,95.806,-11.37,-9.99,88.1,0,108.9,13.91,-10.66,62.3
"2010-02-09 01:03:00",1665045,4.555,93.3,5.207,0.829,-4.622,95.80659,-11.37,-9.97,88.1,0,108.9,13.91,-10.66,55.3
"2010-02-09 01:03:30",1665046,4.664,93.9,3.103,0.579,-4.55,95.80686,-11.37,-9.98,88.1,0,108.9,13.91,-10.66,55.9
"2010-02-09 01:04:00",1665047,4.115,92.6,5.143,1.067,-6.196,95.80962,-11.36,-10.02,88,0,108.9,13.91,-10.65,54.6
"2010-02-09 01:04:30",1665048,4.054,93.1,5.362,1.066,-6.543,95.81538,-11.35,-10.08,88,0,108.9,13.91,-10.64,55.1
"2010-02-09 01:05:00",1665049,3.582,93.9,6.035,1.124,-6.677,95.82302,-11.33,-10.03,88,0,108.9,13.91,-10.62,55.9
"2010-02-09 01:05:30",1665050,4.08,94.8,5.431,1.02,-5.45,95.82751,-11.32,-9.99,88,0,108.9,13.91,-10.61,56.8
"2010-02-09 01:06:00",1665051,4.503,97.4,3.056,0.485,-4.344,95.83129,-11.31,-10.01,88,0,108.9,13.92,-10.60,59.4
"2010-02-09 01:06:30",1665052,4.377,95.8,3.861,0.606,-4.587,95.83631,-11.3,-9.95,88,0,108.9,13.91,-10.58,57.8
"2010-02-09 01:07:00",1665053,4.332,90.4,6.858,0.967,-5.428,95.83743,-11.29,-9.96,88,0,108.9,13.91,-10.58,52.4
"2010-02-09 01:07:30",1665054,3.951,87.9,4.916,1.034,-5.896,95.8369,-11.3,-9.93,88,0,108.9,13.91,-10.58,49.9
"2010-02-09 01:08:00",1665055,3.917,83.6,6.615,1.084,-6.596,95.83635,-11.3,-10.11,87.8,0,108.9,13.91,-10.58,45.6
"2010-02-09 01:08:30",1665056,4.467,87.3,6.404,0.974,-4.928,95.83852,-11.29,-10.02,87.9,0,108.9,13.92,-10.58,49.3
"2010-02-09 01:09:00",1665057,4.453,86.1,4.506,0.769,-4.143,95.8369,-11.3,-9.92,88,0,108.9,13.92,-10.58,48.1
"2010-02-09 01:09:30",1665058,4.748,92.8,3.105,0.703,-4.089,95.83801,-11.29,-9.91,88,0,108.9,13.92,-10.58,54.8
"2010-02-09 01:10:00",1665059,4.719,89.6,4.629,0.699,-4.386,95.84091,-11.29,-9.9,88,0,108.9,13.92,-10.57,51.6
"2010-02-09 01:10:30",1665060,4.725,90.2,3.144,0.616,-4.634,95.84429,-11.28,-9.91,87.9,0,108.9,13.92,-10.56,52.2
"2010-02-09 01:11:00",1665061,4.938,89.6,4.013,0.295,-4.514,95.84402,-11.28,-9.9,87.9,0,108.9,13.91,-10.57,51.6
"2010-02-09 01:11:30",1665062,4.624,88.7,4.77,0.787,-4.863,95.84482,-11.28,-9.9,87.9,0,108.9,13.91,-10.56,50.7
"2010-02-09 01:12:00",1665063,4.273,88.3,5.119,0.992,-5.31,95.84826,-11.27,-9.96,87.8,0,108.9,13.91,-10.55,50.3
"2010-02-09 01:12:30",1665064,3.594,85.4,5.439,1.104,-6.48,95.85339,-11.25,-9.98,87.8,0,108.9,13.92,-10.54,47.4
"2010-02-09 01:13:00",1665065,4.662,90.2,5.04,0.747,-4.878,95.85506,-11.25,-9.99,87.8,0,108.9,13.91,-10.54,52.2
"2010-02-09 01:13:30",1665066,4.463,90.4,4.668,0.845,-4.834,95.86555,-11.22,-9.9,87.8,0,108.9,13.92,-10.51,52.4
"2010-02-09 01:14:00",1665067,4.606,91.9,3.564,0.495,-4.217,95.86787,-11.22,-9.86,87.8,0,108.8,13.92,-10.50,53.9
"2010-02-09 01:14:30",1665068,4.362,90.6,4.17,0.595,-4.314,95.87017,-11.21,-9.86,87.8,0,108.9,13.91,-10.50,52.6
"2010-02-09 01:15:00",1665069,4.209,89.7,4.083,0.771,-4.861,95.87154,-11.21,-9.89,87.7,0,108.9,13.91,-10.50,51.7
"2010-02-09 01:15:30",1665070,3.634,87,5.718,1.081,-5.442,95.87181,-11.21,-9.92,87.7,0,108.9,13.91,-10.49,49.0
"2010-02-09 01:16:00",1665071,3.663,86.8,5.591,1.075,-5.451,95.87126,-11.21,-9.93,87.6,0,108.9,13.91,-10.50,48.8
"2010-02-09 01:16:30",1665072,3.456,84.8,6.095,1.135,-6.416,95.87181,-11.21,-9.96,87.6,0,108.9,13.91,-10.49,46.8
"2010-02-09 01:17:00",1665073,3.844,87.7,4.762,1.007,-5.431,95.87154,-11.21,-9.89,87.6,0,108.9,13.91,-10.50,49.7
"2010-02-09 01:17:30",1665074,4.415,91,2.147,0.703,-4.361,95.87235,-11.21,-9.83,87.7,0,108.9,13.91,-10.49,53.0
"2010-02-09 01:18:00",1665075,4.533,91.4,3.645,0.507,-4.353,95.8724,-11.21,-9.82,87.7,0,108.9,13.91,-10.49,53.4
"2010-02-09 01:18:30",1665076,4.573,94.1,3.05,0.692,-4.62,95.87406,-11.2,-9.82,87.7,0,108.9,13.91,-10.49,56.1
"2010-02-09 01:19:00",1665077,4.932,93.4,4.428,0.439,-4.632,95.87747,-11.19,-9.89,87.5,0,108.9,13.91,-10.48,55.4
"2010-02-09 01:19:30",1665078,3.056,84.9,3.723,0.592,-7.797,95.88086,-11.18,-9.97,87.5,0,108.9,13.91,-10.47,46.9
"2010-02-09 01:20:00",1665079,4.487,91.3,5.066,1.022,-5.491,95.88599,-11.17,-9.93,87.5,0,108.9,13.91,-10.46,53.3
"2010-02-09 01:20:30",1665080,4.979,91.8,4.189,0.625,-4.183,95.89534,-11.15,-9.77,87.6,0,108.9,13.92,-10.43,53.8
"2010-02-09 01:21:00",1665081,5.011,93.2,3.272,0.625,-4.133,95.90134,-11.13,-9.78,87.6,0,108.9,13.92,-10.42,55.2
"2010-02-09 01:21:30",1665082,4.974,93.6,3.212,0.707,-4.308,95.90556,-11.12,-9.78,87.6,0,108.9,13.92,-10.41,55.6
"2010-02-09 01:22:00",1665083,5.231,93.5,3.326,0.231,-4.127,95.90504,-11.12,-9.76,87.5,0,108.9,13.92,-10.41,55.5
"2010-02-09 01:22:30",1665084,4.961,93.2,4.052,0.614,-4.18,95.90562,-11.12,-9.75,87.5,0,108.9,13.92,-10.41,55.2
"2010-02-09 01:23:00",1665085,4.942,94.2,3.767,0.612,-4.374,95.90698,-11.12,-9.74,87.4,0,108.9,13.92,-10.40,56.2
"2010-02-09 01:23:30",1665086,4.844,93.8,3.262,0.692,-4.563,95.90508,-11.12,-9.75,87.4,0,108.9,13.92,-10.41,55.8
"2010-02-09 01:24:00",1665087,4.736,92.8,3.339,0.606,-4.55,95.90589,-11.12,-9.77,87.4,0,108.9,13.92,-10.41,54.8
"2010-02-09 01:24:30",1665088,4.57,93,1.663,0.704,-4.89,95.90701,-11.12,-9.75,87.3,0,108.9,13.91,-10.40,55.0
"2010-02-09 01:25:00",1665089,3.435,86.5,5.643,1.091,-6.695,95.90762,-11.12,-9.84,87.2,0,108.9,13.91,-10.40,48.5
"2010-02-09 01:25:30",1665090,3.399,85.4,5.452,1.077,-7.593,95.91043,-11.11,-9.98,87,0,108.9,13.92,-10.40,47.4
"2010-02-09 01:26:00",1665091,4.28,91.2,5.292,0.903,-5.235,95.91242,-11.1,-9.75,87.2,0,108.9,13.92,-10.39,53.2
"2010-02-09 01:26:30",1665092,4.606,92.6,3.186,0.617,-3.772,95.91163,-11.11,-9.73,87.2,0,108.9,13.92,-10.39,54.6
"2010-02-09 01:27:00",1665093,4.484,93.5,3.088,0.703,-3.868,95.91615,-11.09,-9.72,87.2,0,108.9,13.92,-10.38,55.5
"2010-02-09 01:27:30",1665094,4.517,93.1,3.384,0.702,-3.973,95.91984,-11.08,-9.71,87.1,0,108.9,13.92,-10.37,55.1
"2010-02-09 01:28:00",1665095,4.607,92.9,1.822,0.771,-4.522,95.92123,-11.08,-9.68,87.1,0,108.9,13.92,-10.37,54.9
"2010-02-09 01:28:30",1665096,4.519,92.6,2.877,0.693,-4.952,95.91872,-11.09,-9.72,87,0,108.9,13.92,-10.37,54.6
"2010-02-09 01:29:00",1665097,3.675,88.1,5.557,1.131,-6.609,95.92097,-11.08,-9.81,86.9,0,108.9,13.92,-10.37,50.1
"2010-02-09 01:29:30",1665098,2.844,81.2,3.931,0.748,-8.28,95.92693,-11.07,-9.89,86.8,0,108.9,13.92,-10.35,43.2
"2010-02-09 01:30:00",1665099,4.39,89.1,4.365,0.869,-4.487,95.9349,-11.05,-9.72,86.9,0,108.9,13.92,-10.33,51.1
"2010-02-09 01:30:30",1665100,4.428,89,3.669,0.79,-3.872,95.93774,-11.04,-9.7,86.9,0,108.9,13.93,-10.33,51.0
"2010-02-09 01:31:00",1665101,4.497,89.3,3.869,0.64,-3.643,95.94026,-11.03,-9.69,86.8,0,108.9,13.93,-10.32,51.3
"2010-02-09 01:31:30",1665102,4.481,90.5,3.589,0.648,-3.759,95.93971,-11.03,-9.67,86.8,0,108.9,13.93,-10.32,52.5
"2010-02-09 01:32:00",1665103,4.466,89.8,3.111,0.695,-3.887,95.94026,-11.03,-9.68,86.8,0,108.9,13.92,-10.32,51.8
"2010-02-09 01:32:30",1665104,4.482,89.7,2.98,0.763,-4.236,95.9389,-11.04,-9.66,86.7,0,108.9,13.92,-10.32,51.7
"2010-02-09 01:33:00",1665105,4.501,86.4,2.709,0.788,-4.815,95.94026,-11.03,-9.66,86.7,0,108.9,13.92,-10.32,48.4
"2010-02-09 01:33:30",1665106,4.595,85.1,3.319,0.599,-4.82,95.93971,-11.03,-9.66,86.6,0,108.9,13.92,-10.32,47.1
"2010-02-09 01:34:00",1665107,4.183,82.4,5.217,1.028,-5.791,95.93945,-11.03,-9.73,86.5,0,108.9,13.92,-10.32,44.4
"2010-02-09 01:34:30",1665108,3.377,77.73,5.67,1.066,-7.658,95.93971,-11.03,-9.79,86.3,0,108.9,13.92,-10.32,39.7
"2010-02-09 01:35:00",1665109,3.719,79.9,5.753,1.106,-6.64,95.94026,-11.03,-9.74,86.3,0,108.9,13.92,-10.32,41.9
"2010-02-09 01:35:30",1665110,3.957,80.4,5.507,1.096,-5.972,95.94108,-11.03,-9.75,86.3,0,108.9,13.92,-10.32,42.4
"2010-02-09 01:36:00",1665111,4.517,83.9,3.232,0.64,-4.288,95.93945,-11.03,-9.66,86.2,0,108.9,13.93,-10.32,45.9
"2010-02-09 01:36:30",1665112,4.444,82.9,3.414,0.604,-4.279,95.94054,-11.03,-9.68,86.1,0,108.9,13.93,-10.32,44.9
"2010-02-09 01:37:00",1665113,4.336,82,3.076,0.615,-4.408,95.93971,-11.03,-9.67,86,0,108.9,13.93,-10.32,44.0
"2010-02-09 01:37:30",1665114,4.068,80.9,4.166,0.834,-5.303,95.94369,-11.02,-9.71,86,0,108.9,13.92,-10.31,42.9
"2010-02-09 01:38:00",1665115,3.044,76.36,5.156,1.082,-7.675,95.94538,-11.02,-9.82,85.8,0,108.9,13.92,-10.31,38.4
"2010-02-09 01:38:30",1665116,3.159,78.3,5.569,1.088,-7.23,95.94707,-11.02,-9.77,85.8,0,108.9,13.92,-10.30,40.3
"2010-02-09 01:39:00",1665117,2.65,76.31,4.73,0.869,-7.528,95.94652,-11.02,-9.76,85.8,0,108.9,13.93,-10.30,38.3
"2010-02-09 01:39:30",1665118,4.304,83.5,4.25,0.775,-4.382,95.94517,-11.02,-9.65,85.9,0,108.9,13.93,-10.31,45.5
"2010-02-09 01:40:00",1665119,4.314,83.3,3.994,0.801,-4.34,95.94662,-11.02,-9.69,85.8,0,108.9,13.93,-10.30,45.3
"2010-02-09 01:40:30",1665120,4.454,84.7,2.992,0.633,-4.044,95.95248,-11,-9.63,85.9,0,108.9,13.93,-10.29,46.7
"2010-02-09 01:41:00",1665121,4.363,84.8,2.775,0.77,-4.498,95.95844,-10.99,-9.62,85.8,0,108.9,13.93,-10.27,46.8
"2010-02-09 01:41:30",1665122,4.393,84.9,2.587,0.782,-5.077,95.96016,-10.98,-9.61,85.8,0,108.9,13.93,-10.27,46.9
"2010-02-09 01:42:00",1665123,3.915,81.9,5.492,1.071,-6.412,95.96471,-10.97,-9.76,85.7,0,108.9,13.92,-10.26,43.9
"2010-02-09 01:42:30",1665124,3.196,78.51,4.347,1.179,-7.253,95.96723,-10.96,-9.77,85.7,0,108.9,13.93,-10.25,40.5
"2010-02-09 01:43:00",1665125,3.627,78.12,5.338,1.12,-6.687,95.96751,-10.96,-9.77,85.6,0,108.9,13.93,-10.25,40.1
"2010-02-09 01:43:30",1665126,4.464,81.5,3.868,0.624,-4.061,95.97152,-10.95,-9.61,85.7,0,108.9,13.93,-10.24,43.5
"2010-02-09 01:44:00",1665127,4.43,82,2.739,0.693,-4.239,95.97407,-10.95,-9.6,85.7,0,108.9,13.93,-10.23,44.0
"2010-02-09 01:44:30",1665128,4.336,83.1,1.768,0.769,-4.531,95.97352,-10.95,-9.61,85.7,0,108.9,13.93,-10.23,45.1
"2010-02-09 01:45:00",1665129,4.506,82.6,3.089,0.617,-4.638,95.97433,-10.95,-9.62,85.6,0,108.9,13.93,-10.23,44.6
"2010-02-09 01:45:30",1665130,4.057,80,5.379,0.955,-5.673,95.97462,-10.95,-9.65,85.5,0,108.9,13.93,-10.23,42.0